San Angelo Regional Mathis Field
KSJT : now visible

Airfield :











YOU CAN JOIN US ON...

 
LOGIN :

Register | Disclaimer

   EN    FR    IT 

 









Legend :    VFR   Marginal VFR   IFR   Intensive IFR   Very Intensive IFR
Visi :
Ceiling :
>= 8 km
>= 3000ft
5 to 8 km
1000 to 3000 ft
1500m to 5 km
500 to 1000 ft
800 to 1500m
200 to 500 ft
< 800m
< 200 ft
Symbols :   Thunderstorms  Fog  Heavy snow  Heavy precipitations  Wind > 20 kt







- Airport Elevation : 1919 ft
- IATA code : SJT


KSJT - San Angelo Regional Mathis Field

CURRENT METAR :
  • 181051Z AUTO 03003KT 10SM CLR 21/17 A2995 RMK AO2 SLP115 T02060172

EXPIRED METARs :
  • 180951Z AUTO 00000KT 10SM CLR 22/18 A2995 RMK AO2 SLP114 T02170178
  • 180851Z AUTO 09004KT 10SM CLR 22/18 A2994 RMK AO2 SLP113 T02220178 58005

TAF KSJT
Valid from the 18 at 06:00 until the 19 at 06:00 UTC


180520Z 1806/1906 11003KT P6SM SKC
FM182000 06006KT P6SM SCT080
No reported NOTAMs for that airfield.



MET'MAP, your aeronautical weather chart ! - Copyright ORBIFLY December 2007 - Disclaimer

ORBIFLY MET'MAP TEAM :

Programming & Development : Alexandra Zaïnal
Concept & Development : Baudouin d'Aumeries
Co-Development & Prog : Marc-Olivier Méhu
Technical & hardware support : Manuel Goepfert

Contact : metmap@orbifly.com




SOURCES & CREDITS :

   NOAA       Earth
Advisory